Regional Weather Roundup
Issued by NWS Green Bay, WI

Home | Current Version | Previous Version | Text Only | Print | Product List | Glossary On
Versions: 1 2 3 4 5 6 7 8 9 10 11 12 13 14 15 16 17 18 19 20 21 22 23 24 25 26 27 28 29 30 31 32 33 34 35 36 37 38 39 40 41 42 43 44 45 46 47 48 49 50
000
ASUS43 KGRB 270610
RWRGRB

NORTH-CENTRAL AND NORTHEAST WISCONSIN REGIONAL WEATHER ROUNDUP
NATIONAL WEATHER SERVICE GREEN BAY WI
100 AM CDT MON APR 27 2015

WIZ005-009-010>012-018-019-270700-
NORTH CENTRAL WISCONSIN

CITY           SKY/WX    TMP DP  RH WIND       PRES   REMARKS
IRONWOOD       CLEAR     30  28  93 CALM      30.15S
MANITOWISH WTR CLEAR     30  28  92 CALM      30.14S
ARBOR VITAE    CLEAR     36  30  79 N3        30.14S
EAGLE RIVER    CLEAR     33  26  74 CALM      30.13S
LAND O LAKES   CLEAR     30  27  87 CALM      30.14S
RHINELANDER    CLEAR     37  27  67 N3        30.14R
PHILLIPS       CLEAR     33  25  71 NE3       30.14S
ANTIGO         CLEAR     35  29  80 N7        30.12R
TOMAHAWK       CLEAR     30  26  85 CALM      30.14S
MERRILL        CLEAR     36  29  78 CALM      30.13R
$$

WIZ013-073-270700-
NORTHEAST WISCONSIN

CITY           SKY/WX    TMP DP  RH WIND       PRES   REMARKS
IRON MOUNTAIN  CLEAR     39  27  62 N8        30.09S
MARINETTE      CLEAR     41  27  56 NW6       30.09S
OCONTO         PTCLDY    39  30  71 NW3       30.10S
$$

WIZ017-030-035>037-045-270700-
CENTRAL WISCONSIN

CITY           SKY/WX    TMP DP  RH WIND       PRES   REMARKS
MEDFORD        CLEAR     38  28  69 NE7       30.13R
WAUSAU         CLEAR     42  30  62 CALM      30.11R
MOSINEE        CLEAR     41  30  65 NE3       30.13S
MARSHFIELD     CLEAR     42  28  57 NE6       30.12R
WISC RAPIDS    CLEAR     42  27  55 NE3       30.13R
STEVENS POINT  CLEAR     34  26  72 CALM      30.13R
WAUPACA        CLEAR     38  31  78 N3        30.12S
SHAWANO        CLEAR     38  32  81 CALM      30.11S
CLINTONVILLE   CLEAR     36  30  80 CALM      30.11S
$$

WIZ038-039-048-051-270700-
FOX VALLEY

CITY           SKY/WX    TMP DP  RH WIND       PRES   REMARKS
NWS GREEN BAY  CLEAR     40  33  76 NW6       30.10S
APPLETON       CLEAR     39  28  65 N6        30.10F
OSHKOSH        CLEAR     39  31  72 CALM      30.10S
FOND DU LAC    CLEAR     40  31  70 N3        30.10R
$$

WIZ022-050-052-270700-
EAST CENTRAL WISCONSIN

CITY           SKY/WX    TMP DP  RH WIND       PRES   REMARKS
STURGEON BAY   CLEAR     41  28  60 N10       30.11S
MANITOWOC      CLOUDY    40  31  70 N7        30.09S
SHEBOYGAN      CLEAR     37  30  75 NW6       30.09R
$$

LMZ563-521-522-541>543-270700-
LAKESHORE

STATION/POSITION TIME  TEMP    WIND        PRES    VSBY  WAVE
                       AIR SEA DIR/SP/G                  HT/PER
                 (UTC) (F)     (DEG/KT/KT) (MB)    (MI)  (FT/S)
SHEBOYGAN LKSHOR 0600   42     320/  8/ 11 1019.4R
KEWAUNEE LKSHORE 0600   43     330/  6/ 10 1017.9R
NORTHPORT PIER   0600   41     330/ 10/ 13 1018.6S
SISTER BAY LKSHO 0500   41     360/  9/ 12   N/A
CHAMBERS ISLAND  0600   41     310/  5/  8 1019.3S
MENOMINEE LKSHOR 0600   44     320/ 11/ 13 1019.5R
$$



USA.gov is the U.S. government's official web portal to all federal, state and local government web resources and services.